Weather History for Miami, FL

Change the Weather History Date:

Wednesday, December 25, 2013

  Actual Average Record
Temperature  
Mean Temperature 74 °F 69 °F  
Max Temperature 79 °F 77 °F 85 °F (1941)
Min Temperature 68 °F 61 °F 30 °F (1989)
Degree Days  
Heating Degree Days 0 2  
Month to date heating degree days 0 22  
Since 1 July heating degree days 2 25  
Cooling Degree Days 9 6  
Month to date cooling degree days 259 170  
Year to date cooling degree days 4800 4542  
Growing Degree Days 24 (Base 50)    
Moisture  
Dew Point 65 °F    
Average Humidity 77    
Maximum Humidity 90    
Minimum Humidity 64    
Precipitation  
Precipitation 0.09 in 0.05 in 1.17 in (1915)
Month to date precipitation 0.55 1.69  
Year to date precipitation 66.30 61.55  
Snow  
Snow 0.00 in - - ()
Month to date snowfall 0.0  
Since 1 July snowfall 0.0  
Snow Depth 0.00 in    
Sea Level Pressure  
Sea Level Pressure 30.12 in    
Wind  
Wind Speed 10 mph (NE)    
Max Wind Speed 18 mph    
Max Gust Speed 25 mph    
Visibility 10 miles    
Events Rain    
T = Trace of Precipitation, MM = Missing Value Source: NWS Daily Summary

Daily Weather History Graph

Daily Weather History Graph

Search for Another Location

Airport:

Trip Planner

Search our weather history database for the weather conditions in past years. The results will help you decide how hot, cold, wet, or windy it might be!

Date:

Astronomy

Dec. 25, 2013 Rise Set
Actual Time 7:05 AM EST 5:37 PM EST
Civil Twilight 6:40 AM EST 6:02 PM EST
Nautical Twilight 6:11 AM EST 6:31 PM EST
Astronomical Twilight 5:43 AM EST 6:59 PM EST
Moon 12:04 AM EST (12/25) 12:11 PM EST (12/25)
Length of Visible Light 11h 22m
Length of Day
10h 32m
Waning Gibbous, 49% of the Moon is Illuminated
Dec 25
Waning Gibbous
Jan 1
New
Jan 7
First Quarter
Jan 15
Full
Jan 24
Last Quarter

Hourly Weather History & Observations

Time (EST) Temp. Dew Point Humidity Pressure Visibility Wind Dir Wind Speed Gust Speed Precip Events Conditions
12:41 AM 68.0 °F 60.8 °F 78% 30.13 in 10.0 mi NNW 5.8 mph - N/A   Mostly Cloudy
12:53 AM 68.0 °F 61.0 °F 78% 30.13 in 10.0 mi North 4.6 mph - N/A   Mostly Cloudy
1:53 AM 69.1 °F 62.1 °F 78% 30.12 in 10.0 mi North 3.5 mph - N/A   Mostly Cloudy
2:53 AM 68.0 °F 62.1 °F 81% 30.10 in 10.0 mi NW 3.5 mph - N/A   Clear
3:53 AM 69.1 °F 63.0 °F 81% 30.10 in 10.0 mi NW 3.5 mph - N/A   Mostly Cloudy
4:41 AM 73.4 °F 64.4 °F 73% 30.10 in 10.0 mi ENE 11.5 mph 18.4 mph N/A   Overcast
4:48 AM 73.0 °F 64.9 °F 76% 30.10 in 10.0 mi ENE 11.5 mph 20.7 mph N/A   Overcast
5:30 AM 71.6 °F 64.4 °F 78% 30.10 in 10.0 mi NE 8.1 mph - N/A   Mostly Cloudy
5:53 AM 73.0 °F 64.9 °F 76% 30.11 in 10.0 mi NE 8.1 mph - N/A   Scattered Clouds
6:53 AM 73.0 °F 64.9 °F 76% 30.12 in 10.0 mi NE 8.1 mph - 0.00 in   Mostly Cloudy
7:53 AM 73.0 °F 64.9 °F 76% 30.14 in 10.0 mi NE 15.0 mph 20.7 mph N/A   Mostly Cloudy
8:53 AM 73.9 °F 64.9 °F 73% 30.16 in 10.0 mi ENE 9.2 mph 18.4 mph N/A   Mostly Cloudy
9:53 AM 75.9 °F 66.0 °F 71% 30.17 in 10.0 mi ENE 12.7 mph 19.6 mph N/A   Mostly Cloudy
10:53 AM 75.9 °F 66.0 °F 71% 30.17 in 10.0 mi ENE 13.8 mph 23.0 mph N/A   Mostly Cloudy
11:53 AM 77.0 °F 66.0 °F 69% 30.15 in 10.0 mi NE 16.1 mph 21.9 mph N/A   Mostly Cloudy
12:53 PM 77.0 °F 64.9 °F 66% 30.12 in 10.0 mi ENE 15.0 mph 21.9 mph N/A   Mostly Cloudy
1:53 PM 75.9 °F 64.9 °F 69% 30.11 in 10.0 mi ENE 15.0 mph 25.3 mph N/A   Mostly Cloudy
2:53 PM 75.9 °F 64.0 °F 67% 30.10 in 10.0 mi ENE 12.7 mph 20.7 mph N/A   Mostly Cloudy
3:53 PM 77.0 °F 64.0 °F 64% 30.09 in 10.0 mi ENE 13.8 mph - N/A   Scattered Clouds
4:53 PM 75.9 °F 64.9 °F 69% 30.09 in 10.0 mi ENE 12.7 mph - N/A   Scattered Clouds
5:53 PM 73.9 °F 64.9 °F 73% 30.10 in 10.0 mi NE 9.2 mph - N/A   Scattered Clouds
6:53 PM 75.0 °F 66.0 °F 73% 30.12 in 10.0 mi NE 11.5 mph - N/A   Overcast
7:53 PM 75.0 °F 66.0 °F 73% 30.12 in 10.0 mi NE 9.2 mph - N/A   Overcast
8:53 PM 73.9 °F 64.9 °F 73% 30.14 in 7.0 mi ENE 10.4 mph 17.3 mph 0.00 in Rain Light Rain
9:43 PM 71.6 °F 68.0 °F 88% 30.14 in 10.0 mi East 11.5 mph - 0.04 in Rain Light Rain
9:53 PM 72.0 °F 68.0 °F 87% 30.14 in 7.0 mi ENE 10.4 mph - 0.04 in Rain Light Rain
10:40 PM 71.6 °F 68.0 °F 88% 30.13 in 10.0 mi NE 6.9 mph - 0.00 in   Overcast
10:53 PM 71.1 °F 68.0 °F 90% 30.13 in 10.0 mi NE 6.9 mph - 0.00 in   Overcast
11:08 PM 71.6 °F 68.0 °F 88% 30.13 in 5.0 mi ENE 5.8 mph - 0.00 in Rain Rain
11:39 PM 71.6 °F 68.0 °F 88% 30.12 in 10.0 mi NE 6.9 mph - 0.05 in   Overcast
11:53 PM 71.1 °F 68.0 °F 90% 30.12 in 10.0 mi NE 6.9 mph - 0.05 in   Overcast